This demonstration page uses our WeatherBlox Daily Observations layout. Learn more.

Left ArrowRight Arrow

38.89511, -77.03637

Hourly Observations for January 12, 2018

Temp ( °F °C ) Dew Point ( °F °C ) Humidity (%) Winds ( mph kmh ) Pressure ( in mb ) Visibility ( mi km ) Precip ( " mm )
12:52 am 00:52 Cloudy 58 14.4 56 13.3 93 93 S 9 15 30.06 1018 10 16 0.00 0.00
1:02 am 01:02 Cloudy 58 14.4 56 13.3 93 93 S 9 15 30.06 1018 10 16 0.00 0.00
1:16 am 01:16 Cloudy 59 15 57 13.9 93 93 S 8 13 30.03 1017 10 16 0.00 0.00
1:52 am 01:52 Cloudy 59 15 57 13.9 93 93 S 12 19 30.02 1017 10 16 0.00 0.00
2:52 am 02:52 Cloudy 60 15.6 58 14.4 93 93 SSE 14 22 29.98 1015 10 16 0.00 0.00
3:52 am 03:52 Cloudy with Light Rain 61 16.1 59 15 93 93 S 20 31 29.93 1014 9 14 0.01 0.25
4:52 am 04:52 Cloudy with Light Rain 60 15.6 59 15 96 96 S 15 24 29.91 1013 7 11 0.05 1.27
5:21 am 05:21 Cloudy with Light Rain 59 15 59 15 100 100 S 13 20 29.91 1013 2 3 0.03 0.76
5:24 am 05:24 Cloudy with Light Rain 59 15 59 15 100 100 S 14 22 29.91 1013 2 3 0.04 1.02
5:52 am 05:52 Cloudy with Light Rain 58 14.4 58 14.4 100 100 S 13 20 29.90 1013 2 3 0.07 1.78
6:05 am 06:05 Cloudy with Light Rain 59 15 59 15 100 100 S 15 24 29.91 1013 3 5 0.00 0.03
6:52 am 06:52 Cloudy with Light Rain 59 15 59 15 100 100 S 12 19 29.89 1012 4 6 0.02 0.51
7:05 am 07:05 Cloudy with Light Rain 58 14.4 58 14.4 100 100 S 12 19 29.88 1012 3 5 0.01 0.25
7:52 am 07:52 Cloudy with Mist and Fog 60 15.6 60 15.6 100 100 S 10 17 29.88 1012 4 6 0.01 0.25
8:07 am 08:07 Cloudy with Mist and Fog 58 14.4 58 14.4 100 100 S 12 19 29.88 1012 3 5 0.00 0.03
8:23 am 08:23 Cloudy with Mist and Fog 59 15 59 15 100 100 S 12 19 29.88 1012 3 5 0.00 0.03
8:52 am 08:52 Cloudy with Mist and Fog 60 15.6 60 15.6 100 100 S 9 15 29.87 1011 4 6 0.00 0.03
9:14 am 09:14 Cloudy with Light Rain 60 15.6 60 15.6 100 100 S 10 17 29.88 1012 4 6 0.01 0.25
9:52 am 09:52 Cloudy with Mist and Fog 59 15 59 15 100 100 S 14 22 29.86 1011 3 5 0.01 0.25
10:05 am 10:05 Cloudy with Light Rain 60 15.6 60 15.6 100 100 S 12 19 29.85 1011 3 5 0.00 0.03
10:12 am 10:12 Cloudy with Light Rain 61 16.1 61 16.1 100 100 S 10 17 29.85 1011 4 6 0.00 0.03
10:25 am 10:25 Cloudy with Light Rain 63 17.2 63 17.2 100 100 S 10 17 29.85 1011 4 6 0.02 0.51
10:48 am 10:48 Cloudy with Light Rain 63 17 63 17 100 100 S 10 17 29.83 1010 4 6 0.04 1.02
10:52 am 10:52 Cloudy with Light Rain 62 16.7 62 16.7 100 100 S 12 19 29.83 1010 4 6 0.05 1.27
11:52 am 11:52 Cloudy with Light Rain 61 16.1 61 16.1 100 100 S 13 20 29.79 1009 5 8 0.00 0.03
12:00 pm 12:00 Cloudy with Light Rain 61 16.1 61 16.1 100 100 S 12 19 29.80 1009 5 8 0.00 0.03
12:33 pm 12:33 Cloudy with Mist and Fog 62 16.7 62 16.7 100 100 S 12 19 29.77 1008 6 10 0.00 0.03
12:43 pm 12:43 Cloudy with Mist and Fog 61 16.1 61 16.1 100 100 S 14 22 29.77 1008 6 10 0.00 0.03
12:52 pm 12:52 Cloudy 62 16.7 62 16.7 100 100 S 14 22 29.75 1008 8 13 0.00 0.03
1:07 pm 13:07 Cloudy 59 15 59 15 100 100 S 16 26 29.74 1007 8 13 0.00 0.00
1:23 pm 13:23 Mostly Cloudy 60 15.6 60 15.6 100 100 S 15 24 29.74 1007 8 13 0.00 0.00
1:52 pm 13:52 Cloudy 61 16.1 61 16.1 100 100 S 14 22 29.72 1006 10 16 0.00 0.00
2:52 pm 14:52 Cloudy 63 17.2 62 16.7 97 97 S 12 19 29.70 1006 10 16 0.00 0.00
3:17 pm 15:17 Cloudy with Patchy Fog 62 16.7 61 16.1 96 96 S 12 19 29.71 1006 10 16 0.00 0.00
3:41 pm 15:41 Cloudy with Patchy Fog 63 17.2 61 16.1 93 93 S 12 19 29.68 1005 10 16 0.00 0.00
3:52 pm 15:52 Cloudy with Patchy Fog 63 17.2 62 16.7 97 97 S 9 15 29.68 1005 10 16 0.00 0.00
4:52 pm 16:52 Cloudy with Light Rain 62 16.7 62 16.7 100 100 S 12 19 29.66 1004 10 16 0.00 0.03
5:02 pm 17:02 Cloudy with Light Rain 61 16.1 60 15.6 97 97 S 9 15 29.65 1004 10 16 0.00 0.03
5:52 pm 17:52 Cloudy 62 16.7 61 16.1 96 96 S 9 15 29.63 1003 10 16 0.01 0.25
6:01 pm 18:01 Cloudy 62 16.7 62 16.7 100 100 S 9 15 29.62 1003 10 16 0.00 0.00
6:52 pm 18:52 Cloudy with Patchy Fog 63 17.2 63 17.2 100 100 S 8 13 29.61 1003 10 16 0.00 0.00
7:52 pm 19:52 Cloudy with Light Rain 59 15 59 15 100 100 S 15 24 29.58 1002 9 14 0.00 0.03
8:05 pm 20:05 Cloudy with Patchy Fog 59 15 59 15 100 100 S 15 24 29.59 1002 10 16 0.00 0.03
8:24 pm 20:24 Cloudy with Light Rain 63 17.2 63 17.2 100 100 SSW 13 20 29.59 1002 9 14 0.00 0.03
8:33 pm 20:33 Cloudy with Heavy Rain 64 17.8 64 17.8 100 100 S 14 22 29.56 1001 4 6 0.04 1.02
8:40 pm 20:40 Cloudy with Light Rain 63 17.2 63 17.2 100 100 S 17 28 29.56 1001 10 16 0.06 1.52
8:52 pm 20:52 Cloudy 64 17.8 63 17.2 96 96 S 15 24 29.56 1001 10 16 0.06 1.52
9:07 pm 21:07 Cloudy with Light Rain 59 15 58 14.4 96 96 S 9 15 29.56 1001 9 14 0.00 0.03
9:16 pm 21:16 Cloudy with Light Rain 59 15 59 15 100 100 S 8 13 29.56 1001 9 14 0.00 0.03
9:23 pm 21:23 Cloudy with Light Rain 60 15.6 60 15.6 100 100 S 9 15 29.53 1000 6 10 0.01 0.25
9:38 pm 21:38 Cloudy with Light Rain 59 15 59 15 100 100 S 9 15 29.53 1000 8 13 0.02 0.51
9:52 pm 21:52 Cloudy with Patchy Fog 60 15.6 60 15.6 100 100 S 13 20 29.53 1000 10 16 0.02 0.51
10:04 pm 22:04 Cloudy with Patchy Fog 58 14.4 58 14.4 100 100 S 9 15 29.53 1000 10 16 0.00 0.00
10:40 pm 22:40 Cloudy 60 15.6 60 15.6 100 100 S 9 15 29.50 999 10 16 0.00 0.00
10:52 pm 22:52 Cloudy with Light Rain 59 15 59 15 100 100 S 9 15 29.49 999 10 16 0.00 0.03
11:48 pm 23:48 Cloudy with Light Rain 61 16 61 16 100 100 S 13 20 29.44 997 3 5 0.05 1.27
11:52 pm 23:52 Cloudy with Light Rain 60 15.6 60 15.6 100 100 S 9 15 29.44 997 3 5 0.05 1.27
11:59 pm 23:59 Cloudy with Light Rain 61 16.1 61 16.1 100 100 S 12 19 29.44 997 4 6 0.01 0.25

Powered by AerisWeather